Time,TemperatureF,DewpointF,PressureIn,WindDirection,WindDirectionDegrees,WindSpeedMPH,WindSpeedGustMPH,Humidity,HourlyPrecipIn,Conditions,Clouds,dailyrainin,SolarRadiationWatts/m^2,SoftwareType,DateUTC
2017-11-17 00:04:00,38.8,31.3,30.25,SW,227,0.0,0.0,74,0.00,,,0.00,0.00,Weather logger V3.1.,2017-11-17 05:04:00,
2017-11-17 00:09:00,38.8,31.3,30.25,SW,227,0.0,0.0,74,0.00,,,0.00,0.00,Weather logger V3.1.,2017-11-17 05:09:00,
2017-11-17 00:14:00,38.8,31.3,30.25,SSW,195,0.0,0.0,74,0.00,,,0.00,0.00,Weather logger V3.1.,2017-11-17 05:14:00,
2017-11-17 00:19:00,38.8,30.9,30.25,SE,137,0.0,0.0,73,0.00,,,0.00,0.00,Weather logger V3.1.,2017-11-17 05:19:00,
2017-11-17 00:24:00,38.8,30.9,30.25,SW,229,0.0,0.0,73,0.00,,,0.00,0.00,Weather logger V3.1.,2017-11-17 05:24:00,
2017-11-17 00:29:00,38.8,31.3,30.26,SW,234,0.0,0.0,74,0.00,,,0.00,0.00,Weather logger V3.1.,2017-11-17 05:29:00,
2017-11-17 00:34:00,38.8,30.9,30.25,SE,134,3.4,4.9,73,0.00,,,0.00,0.00,Weather logger V3.1.,2017-11-17 05:34:00,
2017-11-17 00:36:00,38.8,30.9,30.24,SW,232,0.0,0.0,73,0.00,,,0.00,0.00,Weather logger V3.1.,2017-11-17 05:36:00,
2017-11-17 00:41:00,38.8,30.9,30.25,WSW,242,0.0,0.0,73,0.00,,,0.00,0.00,Weather logger V3.1.,2017-11-17 05:41:00,
2017-11-17 00:46:00,38.8,30.9,30.25,WSW,253,0.0,0.0,73,0.00,,,0.00,0.00,Weather logger V3.1.,2017-11-17 05:46:00,
2017-11-17 00:51:00,38.8,30.9,30.25,SSW,193,0.0,0.0,73,0.00,,,0.00,0.00,Weather logger V3.1.,2017-11-17 05:51:00,
2017-11-17 00:56:00,38.8,30.9,30.25,South,174,0.0,0.0,73,0.00,,,0.00,0.00,Weather logger V3.1.,2017-11-17 05:56:00,
2017-11-17 01:01:00,38.8,30.9,30.24,SE,137,2.5,4.9,73,0.00,,,0.00,0.00,Weather logger V3.1.,2017-11-17 06:01:00,
2017-11-17 01:06:00,38.8,30.9,30.26,SW,233,0.0,0.0,73,0.00,,,0.00,0.00,Weather logger V3.1.,2017-11-17 06:06:00,
2017-11-17 01:11:00,38.8,30.9,30.26,SSW,192,0.0,0.0,73,0.00,,,0.00,0.00,Weather logger V3.1.,2017-11-17 06:11:00,
2017-11-17 01:16:00,38.8,30.6,30.25,South,172,0.0,0.0,72,0.00,,,0.00,0.00,Weather logger V3.1.,2017-11-17 06:16:00,
2017-11-17 01:21:00,38.8,30.6,30.25,SW,230,0.0,0.0,72,0.00,,,0.00,0.00,Weather logger V3.1.,2017-11-17 06:21:00,
2017-11-17 01:26:00,38.8,30.6,30.26,South,173,0.0,0.0,72,0.00,,,0.00,0.00,Weather logger V3.1.,2017-11-17 06:26:00,
2017-11-17 01:31:00,38.8,30.6,30.26,South,175,0.0,0.0,72,0.00,,,0.00,0.00,Weather logger V3.1.,2017-11-17 06:31:00,
2017-11-17 01:36:00,38.8,30.2,30.26,SW,227,0.0,0.0,71,0.00,,,0.00,0.00,Weather logger V3.1.,2017-11-17 06:36:00,
2017-11-17 01:41:00,38.8,30.6,30.26,SW,227,0.0,0.0,72,0.00,,,0.00,0.00,Weather logger V3.1.,2017-11-17 06:41:00,
2017-11-17 01:46:00,38.8,30.9,30.26,SW,226,0.0,0.0,73,0.00,,,0.00,0.00,Weather logger V3.1.,2017-11-17 06:46:00,
2017-11-17 01:52:00,38.8,30.9,30.25,SSW,195,0.0,0.0,73,0.00,,,0.00,0.00,Weather logger V3.1.,2017-11-17 06:52:00,
2017-11-17 01:57:00,38.8,30.9,30.24,ESE,112,0.9,2.5,73,0.00,,,0.00,0.00,Weather logger V3.1.,2017-11-17 06:57:00,
2017-11-17 02:02:00,38.8,30.9,30.24,SE,137,3.1,7.6,73,0.00,,,0.00,0.00,Weather logger V3.1.,2017-11-17 07:02:00,
2017-11-17 02:07:00,38.8,30.9,30.25,SE,129,1.8,2.5,73,0.00,,,0.00,0.00,Weather logger V3.1.,2017-11-17 07:07:00,
2017-11-17 02:12:00,38.7,30.4,30.24,West,269,0.0,0.0,72,0.00,,,0.00,0.00,Weather logger V3.1.,2017-11-17 07:12:00,
2017-11-17 02:14:00,38.7,30.4,30.25,West,278,1.3,2.5,72,0.00,,,0.00,0.00,Weather logger V3.1.,2017-11-17 07:14:00,
2017-11-17 02:19:00,38.7,30.4,30.24,SSW,194,0.0,0.0,72,0.00,,,0.00,0.00,Weather logger V3.1.,2017-11-17 07:19:00,
2017-11-17 02:24:00,38.7,30.4,30.26,ESE,113,2.2,4.9,72,0.00,,,0.00,0.00,Weather logger V3.1.,2017-11-17 07:24:00,
2017-11-17 02:29:00,38.7,30.7,30.26,SW,228,0.0,0.0,73,0.00,,,0.00,0.00,Weather logger V3.1.,2017-11-17 07:29:00,
2017-11-17 02:34:00,38.7,30.7,30.26,WSW,241,0.0,0.0,73,0.00,,,0.00,0.00,Weather logger V3.1.,2017-11-17 07:34:00,
2017-11-17 02:39:00,38.7,30.7,-100.00,SSE,163,0.0,0.0,73,0.00,,,0.00,0.00,Weather logger V3.1.,2017-11-17 07:39:00,
2017-11-17 02:44:00,38.7,30.7,30.26,SE,142,0.0,0.0,73,0.00,,,0.00,0.00,Weather logger V3.1.,2017-11-17 07:44:00,
2017-11-17 02:49:00,38.5,30.6,30.25,ESE,113,0.7,2.5,73,0.00,,,0.00,0.00,Weather logger V3.1.,2017-11-17 07:49:00,
2017-11-17 02:54:00,38.5,30.2,30.26,SE,132,1.8,2.5,72,0.00,,,0.00,0.00,Weather logger V3.1.,2017-11-17 07:54:00,
2017-11-17 03:00:00,38.5,30.6,30.25,ESE,118,1.8,2.5,73,0.00,,,0.00,0.00,Weather logger V3.1.,2017-11-17 08:00:00,
2017-11-17 03:05:00,38.5,30.6,30.25,SSE,148,0.2,2.5,73,0.00,,,0.00,0.00,Weather logger V3.1.,2017-11-17 08:05:00,
2017-11-17 03:10:00,38.5,30.6,30.25,ESE,115,3.4,4.9,73,0.00,,,0.00,0.00,Weather logger V3.1.,2017-11-17 08:10:00,
2017-11-17 03:15:00,38.3,30.7,30.25,SE,131,0.9,2.5,74,0.00,,,0.00,0.00,Weather logger V3.1.,2017-11-17 08:15:00,
2017-11-17 03:20:00,38.3,30.4,30.23,SSE,150,3.1,4.9,73,0.00,,,0.00,0.00,Weather logger V3.1.,2017-11-17 08:20:00,
2017-11-17 03:25:00,38.1,30.2,30.23,SE,141,3.1,4.9,73,0.00,,,0.00,0.00,Weather logger V3.1.,2017-11-17 08:25:00,
2017-11-17 03:30:00,38.1,30.2,30.23,ESE,108,3.8,4.9,73,0.00,,,0.00,0.00,Weather logger V3.1.,2017-11-17 08:30:00,
2017-11-17 03:35:00,37.9,30.0,30.23,SSE,153,3.1,4.9,73,0.00,,,0.00,0.00,Weather logger V3.1.,2017-11-17 08:35:00,
2017-11-17 03:40:00,37.9,30.0,30.24,ESE,111,2.9,4.9,73,0.00,,,0.00,0.00,Weather logger V3.1.,2017-11-17 08:40:00,
2017-11-17 03:45:00,37.9,30.0,30.24,SE,131,4.7,4.9,73,0.00,,,0.00,0.00,Weather logger V3.1.,2017-11-17 08:45:00,
2017-11-17 03:50:00,37.8,29.5,30.24,SE,144,3.1,4.9,72,0.00,,,0.00,0.00,Weather logger V3.1.,2017-11-17 08:50:00,
2017-11-17 03:55:00,37.8,29.5,30.24,SSE,152,4.7,4.9,72,0.00,,,0.00,0.00,Weather logger V3.1.,2017-11-17 08:55:00,
2017-11-17 04:00:00,37.8,29.5,30.25,ESE,113,3.1,4.9,72,0.00,,,0.00,0.00,Weather logger V3.1.,2017-11-17 09:00:00,
2017-11-17 04:05:00,37.6,29.3,30.24,ESE,121,2.2,2.5,72,0.00,,,0.00,0.00,Weather logger V3.1.,2017-11-17 09:05:00,
2017-11-17 04:10:00,37.6,29.3,30.24,South,186,1.3,2.5,72,0.00,,,0.00,0.00,Weather logger V3.1.,2017-11-17 09:10:00,
2017-11-17 04:16:00,37.6,29.3,30.24,SE,132,1.8,2.5,72,0.00,,,0.00,0.00,Weather logger V3.1.,2017-11-17 09:16:00,
2017-11-17 04:21:00,37.6,29.3,30.24,SE,132,2.9,4.9,72,0.00,,,0.00,0.00,Weather logger V3.1.,2017-11-17 09:21:00,
2017-11-17 04:26:00,37.6,29.3,30.25,SSE,158,0.2,2.5,72,0.00,,,0.00,0.00,Weather logger V3.1.,2017-11-17 09:26:00,
2017-11-17 04:31:00,37.6,29.3,30.24,ESE,122,1.3,2.5,72,0.00,,,0.00,0.00,Weather logger V3.1.,2017-11-17 09:31:00,
2017-11-17 04:35:00,37.6,29.7,30.24,ESE,113,2.9,4.9,73,0.00,,,0.00,0.00,Weather logger V3.1.,2017-11-17 09:35:00,
2017-11-17 04:40:00,37.6,29.7,30.25,SE,141,3.4,4.9,73,0.00,,,0.00,0.00,Weather logger V3.1.,2017-11-17 09:40:00,
2017-11-17 04:45:00,37.6,29.7,30.23,SE,142,4.0,4.9,73,0.00,,,0.00,0.00,Weather logger V3.1.,2017-11-17 09:45:00,
2017-11-17 04:50:00,37.6,29.7,30.24,ESE,111,6.0,7.6,73,0.00,,,0.00,0.00,Weather logger V3.1.,2017-11-17 09:50:00,
2017-11-17 04:56:00,37.6,29.7,30.24,ESE,111,4.9,4.9,73,0.00,,,0.00,0.00,Weather logger V3.1.,2017-11-17 09:56:00,
2017-11-17 05:01:00,37.6,29.7,30.24,West,269,0.0,0.0,73,0.00,,,0.00,0.00,Weather logger V3.1.,2017-11-17 10:01:00,
2017-11-17 05:11:00,37.6,30.0,30.23,ESE,122,1.8,4.9,74,0.00,,,0.00,0.00,Weather logger V3.1.,2017-11-17 10:11:00,
2017-11-17 05:16:00,37.6,30.0,30.24,SE,127,2.5,4.9,74,0.00,,,0.00,0.00,Weather logger V3.1.,2017-11-17 10:16:00,
2017-11-17 05:21:00,37.4,29.8,30.23,ESE,111,0.2,2.5,74,0.00,,,0.00,0.00,Weather logger V3.1.,2017-11-17 10:21:00,
2017-11-17 05:26:00,37.4,29.8,30.24,SE,140,0.7,2.5,74,0.00,,,0.00,0.00,Weather logger V3.1.,2017-11-17 10:26:00,
2017-11-17 05:31:00,37.4,29.8,30.24,SE,145,2.9,4.9,74,0.00,,,0.00,0.00,Weather logger V3.1.,2017-11-17 10:31:00,
2017-11-17 05:36:00,37.4,29.8,30.25,SSE,166,0.0,0.0,74,0.00,,,0.00,0.00,Weather logger V3.1.,2017-11-17 10:36:00,
2017-11-17 05:41:00,37.4,29.8,30.25,South,185,0.0,0.0,74,0.00,,,0.00,0.00,Weather logger V3.1.,2017-11-17 10:41:00,
2017-11-17 05:46:00,37.4,29.8,30.26,SE,139,0.0,0.0,74,0.00,,,0.00,0.00,Weather logger V3.1.,2017-11-17 10:46:00,
2017-11-17 05:51:00,37.4,29.8,30.25,South,178,0.0,0.0,74,0.00,,,0.00,0.00,Weather logger V3.1.,2017-11-17 10:51:00,
2017-11-17 05:56:00,37.4,29.8,30.24,East,96,4.0,4.9,74,0.00,,,0.00,0.00,Weather logger V3.1.,2017-11-17 10:56:00,
2017-11-17 06:01:00,37.2,28.4,30.23,ESE,111,9.6,12.5,70,0.00,,,0.00,0.00,Weather logger V3.1.,2017-11-17 11:01:00,
2017-11-17 06:06:00,37.2,28.4,30.23,ESE,122,1.8,2.5,70,0.00,,,0.00,0.00,Weather logger V3.1.,2017-11-17 11:06:00,
2017-11-17 06:12:00,37.2,28.4,30.24,SE,130,2.5,2.5,70,0.00,,,0.00,0.00,Weather logger V3.1.,2017-11-17 11:12:00,
2017-11-17 06:17:00,37.2,28.4,30.25,ESE,118,1.8,2.5,70,0.00,,,0.00,0.00,Weather logger V3.1.,2017-11-17 11:17:00,
2017-11-17 06:22:00,37.0,28.2,30.24,SE,131,0.9,2.5,70,0.00,,,0.00,0.00,Weather logger V3.1.,2017-11-17 11:22:00,
2017-11-17 06:27:00,37.0,28.2,30.24,ESE,122,4.5,4.9,70,0.00,,,0.00,0.00,Weather logger V3.1.,2017-11-17 11:27:00,
2017-11-17 06:32:00,37.0,28.2,30.24,East,91,4.5,7.6,70,0.00,,,0.00,0.00,Weather logger V3.1.,2017-11-17 11:32:00,
2017-11-17 06:42:00,36.9,27.7,30.24,SSE,153,1.8,2.5,69,0.00,,,0.00,0.00,Weather logger V3.1.,2017-11-17 11:42:00,
2017-11-17 06:47:00,36.9,27.7,30.25,East,95,2.2,2.5,69,0.00,,,0.00,0.00,Weather logger V3.1.,2017-11-17 11:47:00,
2017-11-17 06:52:00,36.9,27.7,30.24,ESE,111,5.4,7.6,69,0.00,,,0.00,0.00,Weather logger V3.1.,2017-11-17 11:52:00,
2017-11-17 07:02:00,36.9,28.0,30.24,South,172,3.4,4.9,70,0.00,,,0.00,0.00,Weather logger V3.1.,2017-11-17 12:02:00,
2017-11-17 07:07:00,36.9,28.0,30.25,ESE,111,2.2,2.5,70,0.00,,,0.00,0.00,Weather logger V3.1.,2017-11-17 12:07:00,
2017-11-17 07:12:00,36.9,28.0,30.25,ESE,111,2.2,2.5,70,0.00,,,0.00,0.00,Weather logger V3.1.,2017-11-17 12:12:00,
2017-11-17 07:17:00,36.7,28.2,30.26,SE,127,1.8,2.5,71,0.00,,,0.00,0.00,Weather logger V3.1.,2017-11-17 12:17:00,
2017-11-17 07:22:00,36.7,28.2,30.26,SSE,166,1.3,2.5,71,0.00,,,0.00,0.00,Weather logger V3.1.,2017-11-17 12:22:00,
2017-11-17 07:28:00,36.7,28.2,30.25,SE,134,4.0,4.9,71,0.00,,,0.00,0.00,Weather logger V3.1.,2017-11-17 12:28:00,
2017-11-17 07:33:00,36.7,28.2,30.26,ESE,111,3.1,4.9,71,0.00,,,0.00,0.10,Weather logger V3.1.,2017-11-17 12:33:00,
2017-11-17 07:38:00,36.7,28.6,30.25,SSE,150,1.6,2.5,72,0.00,,,0.00,3.45,Weather logger V3.1.,2017-11-17 12:38:00,
2017-11-17 07:43:00,36.7,28.6,30.25,ESE,119,3.8,4.9,72,0.00,,,0.00,8.42,Weather logger V3.1.,2017-11-17 12:43:00,
2017-11-17 07:48:00,36.7,28.2,30.25,East,92,7.8,10.1,71,0.00,,,0.00,10.26,Weather logger V3.1.,2017-11-17 12:48:00,
2017-11-17 07:53:00,36.7,28.2,30.25,SE,128,8.5,10.1,71,0.00,,,0.00,12.61,Weather logger V3.1.,2017-11-17 12:53:00,
2017-11-17 07:58:00,36.7,28.2,30.26,East,93,0.7,2.5,71,0.00,,,0.00,16.04,Weather logger V3.1.,2017-11-17 12:58:00,
2017-11-17 08:03:00,36.7,28.2,30.25,SSE,164,5.6,10.1,71,0.00,,,0.00,17.84,Weather logger V3.1.,2017-11-17 13:03:00,
2017-11-17 08:08:00,36.7,28.2,30.25,SE,136,3.1,4.9,71,0.00,,,0.00,19.01,Weather logger V3.1.,2017-11-17 13:08:00,
2017-11-17 08:13:00,36.7,28.2,30.26,South,176,1.3,2.5,71,0.00,,,0.00,24.24,Weather logger V3.1.,2017-11-17 13:13:00,
2017-11-17 08:18:00,36.7,27.9,30.27,SE,140,6.5,7.6,70,0.00,,,0.00,29.80,Weather logger V3.1.,2017-11-17 13:18:00,
2017-11-17 08:23:00,36.9,28.0,30.27,SSE,148,4.7,4.9,70,0.00,,,0.00,30.05,Weather logger V3.1.,2017-11-17 13:23:00,
2017-11-17 08:28:00,36.9,28.0,30.27,SE,127,4.7,4.9,70,0.00,,,0.00,34.36,Weather logger V3.1.,2017-11-17 13:28:00,
2017-11-17 08:33:00,36.9,28.4,30.27,East,88,0.9,2.5,71,0.00,,,0.00,46.95,Weather logger V3.1.,2017-11-17 13:33:00,
2017-11-17 08:38:00,36.9,28.0,30.27,SE,131,3.1,4.9,70,0.00,,,0.00,57.07,Weather logger V3.1.,2017-11-17 13:38:00,
2017-11-17 08:49:00,37.0,28.2,30.27,ESE,116,3.8,4.9,70,0.00,,,0.00,59.42,Weather logger V3.1.,2017-11-17 13:49:00,
2017-11-17 08:54:00,37.0,29.5,30.27,SSE,160,0.9,2.5,74,0.00,,,0.00,66.99,Weather logger V3.1.,2017-11-17 13:54:00,
2017-11-17 08:59:00,37.0,29.5,30.27,SE,134,6.9,12.5,74,0.00,,,0.00,70.79,Weather logger V3.1.,2017-11-17 13:59:00,
2017-11-17 09:04:00,37.2,29.7,30.27,ESE,113,4.0,4.9,74,0.00,,,0.00,83.47,Weather logger V3.1.,2017-11-17 14:04:00,
2017-11-17 09:09:00,37.2,29.7,30.26,SE,140,6.9,7.6,74,0.00,,,0.00,59.54,Weather logger V3.1.,2017-11-17 14:09:00,
2017-11-17 09:14:00,37.2,29.7,30.27,ESE,111,8.7,10.1,74,0.00,,,0.00,51.22,Weather logger V3.1.,2017-11-17 14:14:00,
2017-11-17 09:19:00,37.2,28.4,30.26,ESE,111,9.6,12.5,70,0.00,,,0.00,44.61,Weather logger V3.1.,2017-11-17 14:19:00,
2017-11-17 09:24:00,37.2,29.7,30.26,SE,125,6.5,10.1,74,0.00,,,0.00,52.85,Weather logger V3.1.,2017-11-17 14:24:00,
2017-11-17 09:29:00,37.2,29.7,30.26,ESE,111,7.8,10.1,74,0.00,,,0.00,74.14,Weather logger V3.1.,2017-11-17 14:29:00,
2017-11-17 09:34:00,37.2,29.7,30.25,NNW,336,2.9,4.9,74,0.00,,,0.00,110.88,Weather logger V3.1.,2017-11-17 14:34:00,
2017-11-17 09:39:00,37.2,29.7,30.25,SE,137,5.4,7.6,74,0.00,,,0.00,131.43,Weather logger V3.1.,2017-11-17 14:39:00,
2017-11-17 09:44:00,37.2,29.7,30.24,SE,141,6.0,7.6,74,0.00,,,0.00,246.19,Weather logger V3.1.,2017-11-17 14:44:00,
2017-11-17 09:49:00,37.4,29.5,30.24,ESE,111,12.3,12.5,73,0.00,,,0.00,162.56,Weather logger V3.1.,2017-11-17 14:49:00,
2017-11-17 09:54:00,37.6,29.7,30.24,SE,130,11.9,12.5,73,0.00,,,0.00,169.06,Weather logger V3.1.,2017-11-17 14:54:00,
2017-11-17 10:00:00,37.6,29.7,30.24,SE,140,17.5,22.6,73,0.00,,,0.00,121.96,Weather logger V3.1.,2017-11-17 15:00:00,
2017-11-17 10:05:00,37.6,29.7,30.24,SSE,152,4.9,4.9,73,0.00,,,0.00,168.59,Weather logger V3.1.,2017-11-17 15:05:00,
2017-11-17 10:10:00,37.8,29.8,30.23,SE,133,11.0,12.5,73,0.00,,,0.00,437.10,Weather logger V3.1.,2017-11-17 15:10:00,
2017-11-17 10:15:00,37.9,29.7,30.23,ESE,121,13.2,15.0,72,0.00,,,0.00,396.40,Weather logger V3.1.,2017-11-17 15:15:00,
2017-11-17 10:20:00,38.3,29.1,30.24,ESE,123,7.2,7.6,69,0.00,,,0.00,328.59,Weather logger V3.1.,2017-11-17 15:20:00,
2017-11-17 10:25:00,38.5,29.1,30.23,SSE,158,3.8,7.6,69,0.00,,,0.00,467.43,Weather logger V3.1.,2017-11-17 15:25:00,
2017-11-17 10:30:00,38.8,28.8,30.23,East,96,11.0,12.5,67,0.00,,,0.00,337.77,Weather logger V3.1.,2017-11-17 15:30:00,
2017-11-17 10:35:00,39.2,29.5,30.23,East,92,11.2,15.0,68,0.00,,,0.00,468.92,Weather logger V3.1.,2017-11-17 15:35:00,
2017-11-17 10:40:00,39.6,29.5,30.23,ESE,117,11.6,15.0,67,0.00,,,0.00,507.18,Weather logger V3.1.,2017-11-17 15:40:00,
2017-11-17 10:45:00,39.7,29.3,30.22,NE,39,6.5,10.1,66,0.00,,,0.00,573.95,Weather logger V3.1.,2017-11-17 15:45:00,
2017-11-17 10:50:00,40.3,29.1,30.22,SE,138,8.1,10.1,64,0.00,,,0.00,486.50,Weather logger V3.1.,2017-11-17 15:50:00,
2017-11-17 10:51:00,40.3,29.1,30.22,ESE,110,11.2,17.5,64,0.00,,,0.00,444.01,Weather logger V3.1.,2017-11-17 15:51:00,
2017-11-17 10:56:00,40.6,29.5,30.22,ESE,109,10.7,17.5,64,0.00,,,0.00,399.49,Weather logger V3.1.,2017-11-17 15:56:00,
2017-11-17 11:01:00,41.0,29.8,30.21,SE,144,7.2,10.1,64,0.00,,,0.00,561.14,Weather logger V3.1.,2017-11-17 16:01:00,
2017-11-17 11:06:00,41.4,29.7,30.21,South,186,8.7,12.5,63,0.00,,,0.00,590.59,Weather logger V3.1.,2017-11-17 16:06:00,
2017-11-17 11:11:00,41.7,30.0,30.21,East,92,12.8,20.1,63,0.00,,,0.00,610.04,Weather logger V3.1.,2017-11-17 16:11:00,
2017-11-17 11:16:00,41.9,29.8,30.21,SE,141,6.0,10.1,62,0.00,,,0.00,620.14,Weather logger V3.1.,2017-11-17 16:16:00,
2017-11-17 11:21:00,42.1,30.0,30.21,ESE,114,13.2,20.1,62,0.00,,,0.00,625.89,Weather logger V3.1.,2017-11-17 16:21:00,
2017-11-17 11:26:00,42.3,30.2,30.21,SSE,154,6.0,12.5,62,0.00,,,0.00,601.26,Weather logger V3.1.,2017-11-17 16:26:00,
2017-11-17 11:31:00,42.4,30.4,30.20,SE,137,6.5,10.1,62,0.00,,,0.00,636.59,Weather logger V3.1.,2017-11-17 16:31:00,
2017-11-17 11:36:00,42.8,29.8,30.19,SSE,151,4.7,10.1,60,0.00,,,0.00,646.38,Weather logger V3.1.,2017-11-17 16:36:00,
2017-11-17 11:41:00,43.2,29.8,30.19,ESE,108,7.2,12.5,59,0.00,,,0.00,627.47,Weather logger V3.1.,2017-11-17 16:41:00,
2017-11-17 11:46:00,43.3,30.0,30.19,South,171,11.2,20.1,59,0.00,,,0.00,616.45,Weather logger V3.1.,2017-11-17 16:46:00,
2017-11-17 11:52:00,43.5,30.2,30.19,SW,236,3.4,4.9,59,0.00,,,0.00,617.27,Weather logger V3.1.,2017-11-17 16:52:00,
2017-11-17 11:57:00,43.9,30.0,30.18,East,94,7.6,10.1,58,0.00,,,0.00,642.49,Weather logger V3.1.,2017-11-17 16:57:00,
2017-11-17 12:02:00,44.1,30.2,30.17,SSE,151,3.8,4.9,58,0.00,,,0.00,652.53,Weather logger V3.1.,2017-11-17 17:02:00,
2017-11-17 12:07:00,44.2,30.9,30.17,East,99,8.7,10.1,59,0.00,,,0.00,628.10,Weather logger V3.1.,2017-11-17 17:07:00,
2017-11-17 12:12:00,44.4,30.6,30.16,SE,125,12.3,15.0,58,0.00,,,0.00,668.98,Weather logger V3.1.,2017-11-17 17:12:00,
2017-11-17 12:17:00,44.4,30.6,30.16,East,92,5.6,7.6,58,0.00,,,0.00,659.92,Weather logger V3.1.,2017-11-17 17:17:00,
2017-11-17 12:22:00,44.4,30.6,30.15,East,101,9.4,10.1,58,0.00,,,0.00,652.94,Weather logger V3.1.,2017-11-17 17:22:00,
2017-11-17 12:27:00,44.6,30.7,30.16,ESE,107,9.4,15.0,58,0.00,,,0.00,672.71,Weather logger V3.1.,2017-11-17 17:27:00,
2017-11-17 12:32:00,44.6,30.4,30.15,SE,132,4.5,4.9,57,0.00,,,0.00,664.78,Weather logger V3.1.,2017-11-17 17:32:00,
2017-11-17 12:37:00,45.0,30.2,30.15,SE,135,4.0,4.9,56,0.00,,,0.00,677.10,Weather logger V3.1.,2017-11-17 17:37:00,
2017-11-17 12:42:00,45.0,30.7,30.15,ESE,116,4.7,7.6,57,0.00,,,0.00,655.97,Weather logger V3.1.,2017-11-17 17:42:00,
2017-11-17 12:47:00,45.1,30.9,30.14,ESE,104,8.1,10.1,57,0.00,,,0.00,635.30,Weather logger V3.1.,2017-11-17 17:47:00,
2017-11-17 12:52:00,45.3,30.2,30.14,SSE,156,4.7,7.6,55,0.00,,,0.00,652.41,Weather logger V3.1.,2017-11-17 17:52:00,
2017-11-17 12:57:00,45.5,29.8,30.14,ESE,109,4.9,4.9,54,0.00,,,0.00,653.23,Weather logger V3.1.,2017-11-17 17:57:00,
2017-11-17 13:02:00,45.9,30.6,30.13,SE,136,5.6,7.6,55,0.00,,,0.00,650.96,Weather logger V3.1.,2017-11-17 18:02:00,
2017-11-17 13:08:00,46.0,30.7,30.12,ESE,115,14.3,20.1,55,0.00,,,0.00,651.68,Weather logger V3.1.,2017-11-17 18:08:00,
2017-11-17 13:13:00,46.2,30.9,30.11,ESE,104,9.4,10.1,55,0.00,,,0.00,670.72,Weather logger V3.1.,2017-11-17 18:13:00,
2017-11-17 13:18:00,46.4,31.1,30.12,SE,146,6.3,7.6,55,0.00,,,0.00,653.92,Weather logger V3.1.,2017-11-17 18:18:00,
2017-11-17 13:23:00,46.6,31.3,30.11,East,101,6.3,7.6,55,0.00,,,0.00,619.38,Weather logger V3.1.,2017-11-17 18:23:00,
2017-11-17 13:28:00,46.8,31.5,30.11,SE,135,4.9,7.6,55,0.00,,,0.00,544.75,Weather logger V3.1.,2017-11-17 18:28:00,
2017-11-17 13:33:00,46.8,31.5,30.11,ESE,113,9.4,10.1,55,0.00,,,0.00,520.69,Weather logger V3.1.,2017-11-17 18:33:00,
2017-11-17 13:38:00,46.9,31.6,30.11,West,265,2.2,4.9,55,0.00,,,0.00,529.94,Weather logger V3.1.,2017-11-17 18:38:00,
2017-11-17 13:43:00,47.3,31.5,30.11,East,101,9.2,12.5,54,0.00,,,0.00,563.06,Weather logger V3.1.,2017-11-17 18:43:00,
2017-11-17 13:48:00,47.5,31.3,30.11,ESE,118,6.5,10.1,53,0.00,,,0.00,568.87,Weather logger V3.1.,2017-11-17 18:48:00,
2017-11-17 13:53:00,47.7,30.9,30.10,East,85,7.6,10.1,52,0.00,,,0.00,524.29,Weather logger V3.1.,2017-11-17 18:53:00,
2017-11-17 13:58:00,47.8,31.1,30.10,ESE,118,4.0,10.1,52,0.00,,,0.00,462.57,Weather logger V3.1.,2017-11-17 18:58:00,
2017-11-17 14:08:00,48.2,31.8,30.09,ESE,118,6.3,10.1,53,0.00,,,0.00,409.85,Weather logger V3.1.,2017-11-17 19:08:00,
2017-11-17 14:13:00,48.2,31.8,30.08,SE,127,10.3,15.0,53,0.00,,,0.00,366.12,Weather logger V3.1.,2017-11-17 19:13:00,
2017-11-17 14:18:00,48.2,32.4,30.08,East,93,4.0,4.9,54,0.00,,,0.00,336.23,Weather logger V3.1.,2017-11-17 19:18:00,
2017-11-17 14:24:00,48.2,31.8,30.08,South,170,4.0,7.6,53,0.00,,,0.00,355.58,Weather logger V3.1.,2017-11-17 19:24:00,
2017-11-17 14:29:00,48.2,31.8,30.08,SSE,164,3.4,7.6,53,0.00,,,0.00,352.04,Weather logger V3.1.,2017-11-17 19:29:00,
2017-11-17 14:34:00,48.2,31.8,30.08,SE,132,5.6,7.6,53,0.00,,,0.00,363.31,Weather logger V3.1.,2017-11-17 19:34:00,
2017-11-17 14:39:00,48.2,31.8,30.07,SSE,149,5.4,7.6,53,0.00,,,0.00,379.19,Weather logger V3.1.,2017-11-17 19:39:00,
2017-11-17 14:44:00,48.4,31.6,30.06,SE,131,6.9,7.6,52,0.00,,,0.00,323.28,Weather logger V3.1.,2017-11-17 19:44:00,
2017-11-17 14:49:00,48.6,32.2,30.07,SE,144,9.6,12.5,53,0.00,,,0.00,292.06,Weather logger V3.1.,2017-11-17 19:49:00,
2017-11-17 14:54:00,48.6,32.2,30.06,ESE,106,6.5,10.1,53,0.00,,,0.00,272.04,Weather logger V3.1.,2017-11-17 19:54:00,
2017-11-17 14:59:00,48.6,31.8,30.06,SE,146,14.1,15.0,52,0.00,,,0.00,204.89,Weather logger V3.1.,2017-11-17 19:59:00,
2017-11-17 15:04:00,48.4,32.0,30.05,ESE,107,8.7,10.1,53,0.00,,,0.00,183.77,Weather logger V3.1.,2017-11-17 20:04:00,
2017-11-17 15:09:00,48.4,32.0,30.04,East,81,6.3,10.1,53,0.00,,,0.00,151.73,Weather logger V3.1.,2017-11-17 20:09:00,
2017-11-17 15:14:00,48.2,32.4,30.04,ESE,111,10.7,15.0,54,0.00,,,0.00,138.72,Weather logger V3.1.,2017-11-17 20:14:00,
2017-11-17 15:19:00,48.0,32.2,30.04,ESE,113,4.7,4.9,54,0.00,,,0.00,130.51,Weather logger V3.1.,2017-11-17 20:19:00,
2017-11-17 15:24:00,48.0,32.2,30.03,East,98,9.2,10.1,54,0.00,,,0.00,120.79,Weather logger V3.1.,2017-11-17 20:24:00,
2017-11-17 15:29:00,48.0,31.6,30.03,ESE,111,7.6,12.5,53,0.00,,,0.00,112.90,Weather logger V3.1.,2017-11-17 20:29:00,
2017-11-17 15:34:00,48.0,32.2,30.03,SE,133,4.9,7.6,54,0.00,,,0.00,107.15,Weather logger V3.1.,2017-11-17 20:34:00,
2017-11-17 15:40:00,48.0,32.7,30.03,East,94,8.1,10.1,55,0.00,,,0.00,98.18,Weather logger V3.1.,2017-11-17 20:40:00,
2017-11-17 15:45:00,48.0,32.7,30.03,SE,138,3.4,4.9,55,0.00,,,0.00,91.74,Weather logger V3.1.,2017-11-17 20:45:00,
2017-11-17 15:50:00,48.0,32.2,30.03,SE,142,6.0,7.6,54,0.00,,,0.00,87.45,Weather logger V3.1.,2017-11-17 20:50:00,
2017-11-17 15:55:00,48.0,33.1,30.02,ESE,103,7.6,10.1,56,0.00,,,0.00,82.87,Weather logger V3.1.,2017-11-17 20:55:00,
2017-11-17 16:00:00,48.0,33.1,30.02,SE,131,6.3,7.6,56,0.00,,,0.00,73.22,Weather logger V3.1.,2017-11-17 21:00:00,
2017-11-17 16:05:00,48.0,33.1,30.02,SE,129,3.8,4.9,56,0.00,,,0.00,64.94,Weather logger V3.1.,2017-11-17 21:05:00,
2017-11-17 16:10:00,48.0,32.7,30.01,ESE,104,8.1,10.1,55,0.00,,,0.00,64.06,Weather logger V3.1.,2017-11-17 21:10:00,
2017-11-17 16:15:00,48.0,33.1,30.01,ESE,102,7.6,10.1,56,0.00,,,0.00,69.62,Weather logger V3.1.,2017-11-17 21:15:00,
2017-11-17 16:20:00,48.0,32.2,30.02,SE,134,4.7,7.6,54,0.00,,,0.00,72.09,Weather logger V3.1.,2017-11-17 21:20:00,
2017-11-17 16:25:00,48.0,32.2,30.02,SE,136,5.4,7.6,54,0.00,,,0.00,77.07,Weather logger V3.1.,2017-11-17 21:25:00,